When you browse on this site, cookies collect data to enhance your experience and personalize the content and advertising you see.
Visit our Privacy Policy to learn more. By continuing to use the site, you agree to this use of cookies and data.
  • In Lithuania
  • List of Countries
  • For 7 days
  • Water Temperature
  • Weather Map
  • Weather Widgets
  • user-avatar
    Login

    Hourly Weather Prince George

    Today, 28 February, Friday

    Time Temperature Precipitation Wind Pressure Humidity
    00:00 -2°C° 0 mm 3 mps 702 mmHg 80%
    01:00 -4°C° 0 mm 3 mps 702 mmHg 77%
    02:00 -3°C° 0 mm 2 mps 702 mmHg 80%
    03:00 -3°C° 0 mm 2 mps 702 mmHg 83%
    04:00 -2°C° 0 mm 1 mps 701 mmHg 88%
    05:00 -2°C° 0 mm 1 mps 701 mmHg 90%
    06:00 -2°C° 0 mm 1 mps 700 mmHg 91%
    07:00 -2°C° 0 mm 1 mps 700 mmHg 92%
    08:00 -1°C° 0.1 mm 1 mps 699 mmHg 92%
    09:00 0°C° 0.1 mm 1 mps 698 mmHg 92%
    10:00 +1°C° 0.1 mm 1 mps 697 mmHg 92%
    11:00 +1°C° 0.6 mm 1 mps 696 mmHg 94%
    12:00 -1°C° 0.6 mm 2 mps 695 mmHg 95%
    13:00 -1°C° 0.6 mm 3 mps 694 mmHg 97%
    14:00 -1°C° 1.3 mm 3 mps 693 mmHg 97%
    15:00 -1°C° 1.3 mm 3 mps 692 mmHg 98%
    16:00 -1°C° 1.3 mm 3 mps 691 mmHg 98%
    17:00 -1°C° 2.1 mm 2 mps 690 mmHg 98%
    18:00 -1°C° 2.1 mm 2 mps 690 mmHg 98%
    19:00 -1°C° 2.1 mm 2 mps 689 mmHg 98%
    20:00 -2°C° 2.4 mm 2 mps 689 mmHg 98%
    21:00 -2°C° 2.4 mm 2 mps 689 mmHg 97%
    22:00 -2°C° 2.4 mm 3 mps 689 mmHg 97%
    23:00 -4°C° 0.9 mm 3 mps 689 mmHg 96%

    Tomorrow, 29 February, Saturday

    Time Temperature Precipitation Wind Pressure Humidity
    00:00 -4°C° 0.9 mm 3 mps 689 mmHg 94%
    01:00 -5°C° 0.9 mm 3 mps 689 mmHg 93%
    02:00 -5°C° 0.4 mm 4 mps 690 mmHg 93%
    03:00 -5°C° 0.4 mm 4 mps 691 mmHg 93%
    04:00 -5°C° 0.4 mm 4 mps 691 mmHg 94%
    05:00 -5°C° 0.3 mm 4 mps 692 mmHg 92%
    06:00 -5°C° 0.3 mm 3 mps 693 mmHg 91%
    07:00 -6°C° 0.3 mm 3 mps 694 mmHg 90%
    08:00 -5°C° 0.1 mm 3 mps 695 mmHg 89%
    09:00 -5°C° 0.1 mm 3 mps 696 mmHg 89%
    10:00 -4°C° 0.1 mm 3 mps 697 mmHg 89%
    11:00 -4°C° 0.1 mm 3 mps 697 mmHg 90%
    12:00 -2°C° 0.1 mm 3 mps 698 mmHg 91%
    13:00 -1°C° 0.1 mm 2 mps 698 mmHg 92%
    14:00 -1°C° 0.1 mm 2 mps 699 mmHg 91%
    15:00 -1°C° 0.1 mm 2 mps 699 mmHg 90%
    16:00 -1°C° 0.1 mm 2 mps 699 mmHg 89%
    17:00 -1°C° 0 mm 1 mps 700 mmHg 90%
    18:00 -2°C° 0 mm 1 mps 700 mmHg 91%
    19:00 -4°C° 0 mm 1 mps 701 mmHg 92%
    20:00 -6°C° 0 mm 1 mps 701 mmHg 92%
    21:00 -6°C° 0 mm 1 mps 702 mmHg 92%
    22:00 -7°C° 0 mm 1 mps 702 mmHg 92%
    23:00 -8°C° 0 mm 1 mps 702 mmHg 93%

    Day after tomorrow, 1 March, Sunday

    Time Temperature Precipitation Wind Pressure Humidity
    00:00 -8°C° 0 mm 1 mps 703 mmHg 93%
    01:00 -9°C° 0 mm 1 mps 703 mmHg 94%
    02:00 -9°C° 0 mm 1 mps 703 mmHg 94%
    03:00 -9°C° 0 mm 1 mps 703 mmHg 94%
    04:00 -10°C° 0 mm 1 mps 703 mmHg 95%
    05:00 -12°C° 0 mm 2 mps 703 mmHg 95%
    06:00 -12°C° 0 mm 2 mps 703 mmHg 95%
    07:00 -12°C° 0 mm 2 mps 703 mmHg 95%
    08:00 -9°C° 0 mm 2 mps 703 mmHg 93%
    09:00 -7°C° 0 mm 2 mps 702 mmHg 92%
    10:00 -6°C° 0 mm 3 mps 702 mmHg 90%
    11:00 -5°C° 0 mm 3 mps 701 mmHg 89%
    12:00 -4°C° 0 mm 3 mps 701 mmHg 88%
    13:00 -3°C° 0 mm 4 mps 700 mmHg 87%
    14:00 -3°C° 0.6 mm 4 mps 700 mmHg 90%
    15:00 -3°C° 0.6 mm 4 mps 699 mmHg 93%
    16:00 -3°C° 0.6 mm 4 mps 698 mmHg 95%
    17:00 -3°C° 0.9 mm 4 mps 698 mmHg 95%
    18:00 -4°C° 0.9 mm 5 mps 697 mmHg 94%
    19:00 -4°C° 0.9 mm 5 mps 696 mmHg 93%
    20:00 -4°C° 0 mm 5 mps 696 mmHg 91%
    21:00 -2°C° 0 mm 5 mps 695 mmHg 89%
    22:00 -2°C° 0 mm 5 mps 695 mmHg 87%
    23:00 -4°C° 0 mm 5 mps 695 mmHg 87%

    2 March, Monday

    Time Temperature Precipitation Wind Pressure Humidity
    00:00 -4°C° 0 mm 5 mps 695 mmHg 86%
    01:00 -4°C° 0 mm 5 mps 694 mmHg 86%
    02:00 -5°C° 0 mm 5 mps 694 mmHg 87%
    03:00 -5°C° 0 mm 4 mps 694 mmHg 88%
    04:00 -6°C° 0 mm 3 mps 695 mmHg 88%
    05:00 -6°C° 0 mm 3 mps 695 mmHg 88%
    06:00 -6°C° 0 mm 2 mps 695 mmHg 88%
    07:00 -6°C° 0 mm 2 mps 695 mmHg 87%
    08:00 -4°C° 0 mm 2 mps 696 mmHg 87%
    09:00 -2°C° 0 mm 3 mps 696 mmHg 87%
    10:00 0°C° 0 mm 3 mps 696 mmHg 86%
    11:00 0°C° 0 mm 3 mps 696 mmHg 90%
    12:00 +1°C° 0 mm 3 mps 696 mmHg 93%
    13:00 +2°C° 0 mm 2 mps 696 mmHg 96%
    14:00 +2°C° 0 mm 2 mps 696 mmHg 96%
    15:00 +2°C° 0 mm 2 mps 695 mmHg 96%
    16:00 +2°C° 0 mm 2 mps 695 mmHg 97%
    17:00 +1°C° 0 mm 2 mps 695 mmHg 95%
    18:00 +1°C° 0 mm 2 mps 695 mmHg 94%
    19:00 -1°C° 0 mm 2 mps 695 mmHg 93%
    20:00 -1°C° 0 mm 3 mps 694 mmHg 93%
    21:00 -1°C° 0 mm 3 mps 694 mmHg 92%
    22:00 -1°C° 0 mm 4 mps 693 mmHg 92%
    23:00 -2°C° 0 mm 4 mps 693 mmHg 89%

    3 March, Tuesday

    Time Temperature Precipitation Wind Pressure Humidity
    00:00 -2°C° 0 mm 5 mps 692 mmHg 86%
    01:00 -2°C° 0 mm 5 mps 692 mmHg 83%
    02:00 -1°C° 0 mm 5 mps 692 mmHg 80%
    03:00 -2°C° 0 mm 6 mps 693 mmHg 76%
    04:00 -2°C° 0 mm 6 mps 693 mmHg 73%
    05:00 -2°C° 0 mm 5 mps 694 mmHg 74%
    06:00 -2°C° 0 mm 5 mps 694 mmHg 76%
    07:00 -3°C° 0 mm 4 mps 694 mmHg 78%
    08:00 -2°C° 0 mm 5 mps 694 mmHg 77%
    09:00 -1°C° 0 mm 5 mps 694 mmHg 75%
    10:00 -1°C° 0 mm 6 mps 694 mmHg 74%
    11:00 0°C° 0 mm 5 mps 694 mmHg 78%
    12:00 0°C° 0 mm 5 mps 694 mmHg 83%
    13:00 +1°C° 0 mm 4 mps 694 mmHg 87%
    14:00 0°C° 0.1 mm 4 mps 694 mmHg 85%
    15:00 0°C° 0.1 mm 4 mps 694 mmHg 82%
    16:00 0°C° 0.1 mm 4 mps 694 mmHg 80%
    17:00 -1°C° 0 mm 3 mps 694 mmHg 80%
    18:00 -2°C° 0 mm 2 mps 693 mmHg 80%
    19:00 -4°C° 0 mm 2 mps 693 mmHg 80%
    20:00 -4°C° 0 mm 2 mps 693 mmHg 83%
    21:00 -4°C° 0 mm 2 mps 693 mmHg 85%
    22:00 -2°C° 0 mm 1 mps 692 mmHg 88%
    23:00 -2°C° 1.1 mm 1 mps 692 mmHg 91%

    4 March, Wednesday

    Time Temperature Precipitation Wind Pressure Humidity
    00:00 -2°C° 1.1 mm 1 mps 692 mmHg 95%
    01:00 -3°C° 1.1 mm 0 mps 692 mmHg 98%
    02:00 -2°C° 0.4 mm 1 mps 692 mmHg 96%
    03:00 -4°C° 0.4 mm 2 mps 692 mmHg 95%
    04:00 -5°C° 0.4 mm 2 mps 693 mmHg 94%
    05:00 -5°C° 0.1 mm 2 mps 693 mmHg 94%
    06:00 -4°C° 0.1 mm 1 mps 693 mmHg 95%
    07:00 -4°C° 0.1 mm 1 mps 694 mmHg 96%
    08:00 -3°C° 0 mm 1 mps 694 mmHg 93%
    09:00 -1°C° 0 mm 1 mps 695 mmHg 89%
    10:00 -2°C° 0 mm 2 mps 695 mmHg 86%
    11:00 -1°C° 0.2 mm 2 mps 696 mmHg 85%
    12:00 +1°C° 0.2 mm 2 mps 696 mmHg 83%
    13:00 +1°C° 0.2 mm 2 mps 697 mmHg 81%
    14:00 +1°C° 0.1 mm 2 mps 697 mmHg 82%
    15:00 +2°C° 0.1 mm 1 mps 697 mmHg 83%
    16:00 +2°C° 0.1 mm 1 mps 697 mmHg 84%
    17:00 0°C° 0.1 mm 1 mps 698 mmHg 85%
    18:00 -1°C° 0.1 mm 1 mps 699 mmHg 85%
    19:00 -3°C° 0.1 mm 1 mps 700 mmHg 85%
    20:00 -4°C° 0 mm 1 mps 700 mmHg 86%
    21:00 -6°C° 0 mm 1 mps 701 mmHg 87%
    22:00 -6°C° 0 mm 1 mps 702 mmHg 89%
    23:00 -7°C° 0 mm 1 mps 702 mmHg 89%
    Show more